,,PA_Meas_PMT16A,,PR_Meas_QMR101_102,,RH_Meas_QMH101,,SR_Meas_QMS101,,TA_Meas_QMH101,,GenWind,,GenWind,
time,status,PA,status,PR,status,RH,status,SR,status,TA,status,DirAvg,status,SpdAvg,
2016-08-04, 00:00:04,VALID,914.933,VALID,0,VALID,61.8716,VALID,246.577,VALID,27.441,VALID,27,VALID,0.294922,
2016-08-04, 00:01:04,VALID,914.887,VALID,0,VALID,62.3824,VALID,211.767,VALID,27.4214,VALID,37,VALID,0.559766,
2016-08-04, 00:02:04,VALID,914.906,VALID,0,VALID,61.9631,VALID,252.272,VALID,27.2847,VALID,6,VALID,0.594531,
2016-08-04, 00:03:04,VALID,914.924,VALID,0,VALID,61.5515,VALID,283.215,VALID,27.2261,VALID,32,VALID,0.0519531,
2016-08-04, 00:04:04,VALID,914.933,VALID,0,VALID,61.9631,VALID,283.967,VALID,27.2065,VALID,35,VALID,0,
2016-08-04, 00:05:04,VALID,914.95,VALID,0,VALID,60.4918,VALID,294.281,VALID,27.2456,VALID,315,VALID,0.0675781,
2016-08-04, 00:06:04,VALID,914.943,VALID,0,VALID,61.277,VALID,299.976,VALID,27.2456,VALID,26,VALID,0.122656,
2016-08-04, 00:07:04,VALID,914.994,VALID,0,VALID,61.8869,VALID,295.893,VALID,27.2261,VALID,31,VALID,0,
2016-08-04, 00:08:04,VALID,915.068,VALID,0,VALID,60.8272,VALID,294.496,VALID,27.3238,VALID,208,VALID,0,
2016-08-04, 00:09:04,VALID,915.092,VALID,0,VALID,59.5389,VALID,285.149,VALID,27.2651,VALID,232,VALID,0.720703,
2016-08-04, 00:10:04,VALID,915.096,VALID,0,VALID,59.4474,VALID,270.322,VALID,27.1675,VALID,322,VALID,0,
2016-08-04, 00:11:04,VALID,915.135,VALID,0,VALID,61.216,VALID,283,VALID,27.2651,VALID,268,VALID,0.00429688,
2016-08-04, 00:12:04,VALID,915.145,VALID,0,VALID,61.7344,VALID,285.579,VALID,27.2847,VALID,309,VALID,0.00117188,
2016-08-04, 00:13:04,VALID,915.163,VALID,0,VALID,61.0102,VALID,284.289,VALID,27.3628,VALID,88,VALID,0,
2016-08-04, 00:14:04,VALID,915.17,VALID,0,VALID,62.1918,VALID,282.14,VALID,27.3238,VALID,44,VALID,0.305859,
2016-08-04, 00:15:04,VALID,915.199,VALID,0,VALID,62.0089,VALID,282.678,VALID,27.2672,VALID,351,VALID,1.32109,
2016-08-04, 00:16:04,VALID,915.181,VALID,0,VALID,60.9416,VALID,281.711,VALID,27.2086,VALID,277,VALID,0.00742187,
2016-08-04, 00:17:04,VALID,915.238,VALID,0,VALID,62.5578,VALID,277.413,VALID,27.0523,VALID,28,VALID,0.0132813,
2016-08-04, 00:18:04,VALID,915.305,VALID,0,VALID,61.8564,VALID,271.504,VALID,27.0523,VALID,203,VALID,0,
2016-08-04, 00:19:04,VALID,915.243,VALID,0,VALID,60.4384,VALID,265.595,VALID,27.1695,VALID,12,VALID,0.00351562,
2016-08-04, 00:20:04,VALID,915.244,VALID,0,VALID,61.7039,VALID,261.082,VALID,27.0523,VALID,14,VALID,0.0871094,
2016-08-04, 00:21:04,VALID,915.223,VALID,0,VALID,61.8869,VALID,257.644,VALID,26.9937,VALID,4,VALID,0.00429688,
2016-08-04, 00:22:04,VALID,915.242,VALID,0,VALID,61.5972,VALID,253.024,VALID,26.896,VALID,54,VALID,0.336328,
2016-08-04, 00:23:04,VALID,915.275,VALID,0,VALID,63.5183,VALID,248.619,VALID,26.8765,VALID,137,VALID,0,
2016-08-04, 00:24:04,VALID,915.315,VALID,0,VALID,63.6022,VALID,244.214,VALID,26.9351,VALID,115,VALID,0,
2016-08-04, 00:25:04,VALID,915.269,VALID,0,VALID,63.9528,VALID,237.767,VALID,26.9742,VALID,37,VALID,0.00585938,
2016-08-04, 00:26:04,VALID,915.312,VALID,0,VALID,64.8143,VALID,230.461,VALID,26.9546,VALID,56,VALID,0,
2016-08-04, 00:27:04,VALID,915.317,VALID,0,VALID,63.1752,VALID,224.445,VALID,26.8374,VALID,170,VALID,0,
2016-08-04, 00:28:04,VALID,915.317,VALID,0,VALID,64.9972,VALID,217.353,VALID,26.6812,VALID,39,VALID,1.62031,
2016-08-04, 00:29:04,VALID,915.383,VALID,0,VALID,63.9147,VALID,212.841,VALID,26.4272,VALID,12,VALID,1.91094,
2016-08-04, 00:30:04,VALID,915.422,VALID,0,VALID,65.6452,VALID,207.147,VALID,26.31,VALID,291,VALID,0,
2016-08-04, 00:31:04,VALID,915.424,VALID,0,VALID,65.0201,VALID,201.345,VALID,26.2319,VALID,63,VALID,0.153516,
2016-08-04, 00:32:04,VALID,915.506,VALID,0,VALID,66.0264,VALID,196.08,VALID,26.1127,VALID,33,VALID,0.226953,
2016-08-04, 00:33:04,VALID,915.52,VALID,0,VALID,65.4699,VALID,191.353,VALID,26.0757,VALID,18,VALID,0,
2016-08-04, 00:34:04,VALID,915.496,VALID,0,VALID,66.6896,VALID,183.939,VALID,26.0366,VALID,53,VALID,0.266406,
2016-08-04, 00:35:04,VALID,915.514,VALID,0,VALID,66.1865,VALID,177.17,VALID,25.9604,VALID,359,VALID,1.28984,
2016-08-04, 00:36:04,VALID,915.559,VALID,0,VALID,66.0493,VALID,173.303,VALID,25.8608,VALID,13,VALID,0.651563,
2016-08-04, 00:37:04,VALID,915.547,VALID,0,VALID,66.1865,VALID,168.468,VALID,25.8608,VALID,50,VALID,0,
2016-08-04, 00:38:04,VALID,915.534,VALID,0,VALID,66.3237,VALID,163.633,VALID,25.9019,VALID,208,VALID,0.103125,
2016-08-04, 00:39:04,VALID,915.537,VALID,0,VALID,67.391,VALID,159.98,VALID,25.8218,VALID,256,VALID,0,
2016-08-04, 00:40:04,VALID,915.565,VALID,0,VALID,66.2551,VALID,155.038,VALID,25.8999,VALID,264,VALID,0.00390625,
2016-08-04, 00:41:04,VALID,915.581,VALID,0,VALID,66.2017,VALID,148.054,VALID,25.9409,VALID,35,VALID,0.319141,
2016-08-04, 00:42:04,VALID,915.579,VALID,0,VALID,66.1789,VALID,138.062,VALID,25.9995,VALID,3,VALID,0,
2016-08-04, 00:43:04,VALID,915.595,VALID,0,VALID,67.9323,VALID,130.756,VALID,26.0581,VALID,16,VALID,0,
2016-08-04, 00:44:04,VALID,915.578,VALID,0,VALID,66.6591,VALID,94.011,VALID,25.9409,VALID,91,VALID,0.164453,
2016-08-04, 00:45:04,VALID,915.623,VALID,0,VALID,66.9031,VALID,121.194,VALID,25.7437,VALID,195,VALID,0,
2016-08-04, 00:46:04,VALID,915.623,VALID,0,VALID,67.391,VALID,122.483,VALID,25.7241,VALID,191,VALID,0,
2016-08-04, 00:47:04,VALID,915.604,VALID,0,VALID,68.1915,VALID,116.466,VALID,25.687,VALID,12,VALID,0.0140625,
2016-08-04, 00:48:04,VALID,915.64,VALID,0,VALID,68.2372,VALID,117.756,VALID,25.6265,VALID,49,VALID,0,
2016-08-04, 00:49:04,VALID,915.626,VALID,0,VALID,68.2219,VALID,113.458,VALID,25.648,VALID,288,VALID,0,
2016-08-04, 00:50:04,VALID,915.649,VALID,0,VALID,67.8865,VALID,109.697,VALID,25.648,VALID,233,VALID,0,
2016-08-04, 00:51:04,VALID,915.599,VALID,0,VALID,66.743,VALID,106.259,VALID,25.5698,VALID,303,VALID,1.69102,
2016-08-04, 00:52:04,VALID,915.596,VALID,0,VALID,68.0314,VALID,93.2589,VALID,25.4331,VALID,206,VALID,0.137891,
2016-08-04, 00:53:04,VALID,915.576,VALID,0,VALID,69.2206,VALID,82.4074,VALID,25.3941,VALID,138,VALID,0.000390625,
2016-08-04, 00:54:04,VALID,915.603,VALID,0,VALID,69.2969,VALID,96.1598,VALID,25.4136,VALID,135,VALID,0,
2016-08-04, 00:55:04,VALID,915.63,VALID,0,VALID,69.6094,VALID,99.3831,VALID,25.355,VALID,134,VALID,0,
2016-08-04, 00:56:04,VALID,915.593,VALID,0,VALID,69.6475,VALID,95.7301,VALID,25.2769,VALID,127,VALID,0.003125,
2016-08-04, 00:57:04,VALID,915.629,VALID,0,VALID,70.5928,VALID,86.8125,VALID,25.2379,VALID,92,VALID,0,
2016-08-04, 00:58:04,VALID,915.645,VALID,0,VALID,69.4341,VALID,82.7297,VALID,25.1793,VALID,191,VALID,0.130859,
2016-08-04, 00:59:04,VALID,915.627,VALID,0,VALID,70.7148,VALID,79.8288,VALID,25.1207,VALID,200,VALID,0.180469,
2016-08-04, 01:00:04,VALID,915.637,VALID,0,VALID,69.5408,VALID,75.9609,VALID,25.0231,VALID,300,VALID,0,
2016-08-04, 01:01:04,VALID,915.602,VALID,0,VALID,71.1798,VALID,71.7707,VALID,25.0036,VALID,298,VALID,0,
2016-08-04, 01:02:04,VALID,915.586,VALID,0,VALID,70.8368,VALID,76.8204,VALID,25.0817,VALID,298,VALID,0,
2016-08-04, 01:03:04,VALID,915.688,VALID,0,VALID,70.509,VALID,62.7456,VALID,25.064,VALID,326,VALID,0,
2016-08-04, 01:05:04,VALID,915.598,VALID,0,VALID,70.9969,VALID,53.2908,VALID,25.0426,VALID,273,VALID,0,
2016-08-04, 01:06:04,VALID,915.558,VALID,0,VALID,70.6005,VALID,49.5304,VALID,24.9645,VALID,317,VALID,0,
2016-08-04, 01:08:04,VALID,915.633,VALID,0,VALID,71.744,VALID,46.1997,VALID,24.8864,VALID,1,VALID,0,
2016-08-04, 01:10:04,VALID,915.779,VALID,0,VALID,72.2624,VALID,43.6211,VALID,24.7516,VALID,3,VALID,0,
2016-08-04, 23:45:04,VALID,917.103,VALID,0.2,INVALID,116.265,VALID,63.1754,VALID,20.4033,VALID,348,VALID,0,
2016-08-04, 23:46:04,VALID,917.117,VALID,0,INVALID,116.333,VALID,67.2582,VALID,20.3838,VALID,126,VALID,0,
2016-08-04, 23:47:04,VALID,917.095,VALID,0,INVALID,116.394,VALID,68.2251,VALID,20.3253,VALID,102,VALID,0,
2016-08-04, 23:48:04,VALID,917.107,VALID,0,INVALID,116.44,VALID,69.5144,VALID,20.2863,VALID,44,VALID,0,
2016-08-04, 23:49:04,VALID,917.092,VALID,0,INVALID,116.509,VALID,71.2335,VALID,20.2473,VALID,115,VALID,0,
2016-08-04, 23:50:04,VALID,917.065,VALID,0,INVALID,116.486,VALID,74.5642,VALID,20.2278,VALID,114,VALID,0,
2016-08-04, 23:51:04,VALID,917.087,VALID,0,INVALID,116.524,VALID,77.4651,VALID,20.2083,VALID,307,VALID,0,
2016-08-04, 23:52:04,VALID,917.098,VALID,0,INVALID,116.417,VALID,75.6386,VALID,20.2473,VALID,24,VALID,0.407422,
2016-08-04, 23:53:04,VALID,917.131,VALID,0,INVALID,116.371,VALID,71.6632,VALID,20.3269,VALID,4,VALID,0.597656,
2016-08-04, 23:54:04,VALID,917.099,VALID,0,INVALID,116.295,VALID,71.9856,VALID,20.4049,VALID,20,VALID,0.0078125,
2016-08-04, 23:55:04,VALID,917.076,VALID,0,INVALID,116.364,VALID,73.2749,VALID,20.3643,VALID,25,VALID,0.228906,
2016-08-04, 23:56:04,VALID,917.112,VALID,0,INVALID,116.364,VALID,73.8121,VALID,20.4049,VALID,359,VALID,0,
2016-08-04, 23:57:04,VALID,917.133,VALID,0,INVALID,116.349,VALID,75.1014,VALID,20.4033,VALID,18,VALID,0,
2016-08-04, 23:58:04,VALID,917.123,VALID,0,INVALID,116.318,VALID,77.5725,VALID,20.4634,VALID,14,VALID,0,
2016-08-04, 23:59:04,VALID,917.154,VALID,0,INVALID,116.265,VALID,81.2255,VALID,20.5024,VALID,14,VALID,0,
